Weather History for Jamestown, ND

Change the Weather History Date:

Saturday, February 1, 2014

  Actual Average Record
Temperature  
Mean Temperature 7 °F 11 °F  
Max Temperature 14 °F 21 °F 56 °F (1992)
Min Temperature 0 °F 1 °F -40 °F (1893)
Degree Days  
Heating Degree Days 58 54  
Month to date heating degree days 58 54  
Since 1 July heating degree days 5673 5416  
Cooling Degree Days 0 0  
Month to date cooling degree days 0 0  
Year to date cooling degree days 0 0  
Moisture  
Dew Point -1 °F    
Average Humidity 80    
Maximum Humidity 87    
Minimum Humidity 72    
Precipitation  
Precipitation T in 0.01 in 0.30 in (1961)
Month to date precipitation T 0.01  
Year to date precipitation 0.29 0.46  
Sea Level Pressure  
Sea Level Pressure 30.10 in    
Wind  
Wind Speed 15 mph (NW)    
Max Wind Speed 29 mph    
Max Gust Speed 34 mph    
Visibility 10 miles    
Events Snow    
T = Trace of Precipitation, MM = Missing Value Source: NWS Daily Summary

Daily Weather History Graph

Daily Weather History Graph

Search for Another Location

Airport:

Trip Planner

Search our weather history database for the weather conditions in past years. The results will help you decide how hot, cold, wet, or windy it might be!

Date:

Astronomy

Feb. 01, 2014 Rise Set
Actual Time 7:59 AM CST 5:37 PM CST
Civil Twilight 7:26 AM CST 6:10 PM CST
Nautical Twilight 6:50 AM CST 6:46 PM CST
Astronomical Twilight 6:14 AM CST 7:22 PM CST
Moon 8:38 AM CST (2/1) 8:28 PM CST (2/1)
Length of Visible Light 10h 43m
Length of Day
9h 38m
Waxing Crescent, 5% of the Moon is Illuminated
Feb 1
Waxing Crescent
Feb 6
First Quarter
Feb 14
Full
Feb 22
Last Quarter
Mar 1
New

Hourly Weather History & Observations

Time (CST) Temp. Windchill Dew Point Humidity Pressure Visibility Wind Dir Wind Speed Gust Speed Precip Events Conditions
12:56 AM 12.9 °F -4.4 °F 8.1 °F 81% 29.87 in 10.0 mi NW 18.4 mph - N/A   Scattered Clouds
1:56 AM 10.0 °F -10.4 °F 3.0 °F 73% 29.90 in 10.0 mi NW 24.2 mph 34.5 mph N/A   Clear
2:56 AM 8.1 °F -11.2 °F 1.9 °F 76% 29.94 in 10.0 mi NW 19.6 mph - N/A   Partly Cloudy
3:51 AM 8.6 °F -11.4 °F 1.4 °F 73% 29.85 in 10.0 mi NW 21.9 mph - N/A   Overcast
3:56 AM 8.1 °F -11.2 °F 3.0 °F 80% 29.96 in 10.0 mi NW 19.6 mph - N/A   Overcast
4:35 AM 9.0 °F -11.4 °F 3.9 °F 80% 29.88 in 9.0 mi NW 23.0 mph 32.2 mph 0.00 in   Overcast
4:56 AM 9.0 °F -11.8 °F 3.9 °F 80% 30.00 in 5.0 mi NW 24.2 mph - 0.00 in Snow Light Snow
5:56 AM 6.1 °F -14.8 °F -0.9 °F 73% 30.04 in 10.0 mi NW 21.9 mph - 0.00 in   Overcast
6:46 AM 3.0 °F -16.7 °F -2.0 °F 80% 29.97 in 10.0 mi NW 17.3 mph - N/A   Mostly Cloudy
6:56 AM 1.9 °F -19.2 °F -2.9 °F 80% 30.08 in 10.0 mi NW 19.6 mph 25.3 mph N/A   Mostly Cloudy
7:56 AM 1.0 °F -20.4 °F -4.0 °F 79% 30.10 in 10.0 mi NW 19.6 mph - N/A   Partly Cloudy
8:56 AM -0.0 °F -21.3 °F -4.0 °F 83% 30.14 in 10.0 mi NNW 18.4 mph - N/A   Partly Cloudy
9:17 AM 1.0 °F -18.7 °F -4.0 °F 79% 30.04 in 10.0 mi NW 16.1 mph - N/A   Mostly Cloudy
9:34 AM 1.0 °F -18.0 °F -4.0 °F 79% 30.05 in 10.0 mi NNW 15.0 mph - N/A   Scattered Clouds
9:56 AM 1.0 °F -17.3 °F -5.1 °F 75% 30.16 in 10.0 mi NW 13.8 mph - N/A   Clear
10:56 AM 1.9 °F -17.5 °F -4.0 °F 76% 30.17 in 10.0 mi NW 16.1 mph - N/A   Clear
11:56 AM 3.0 °F -14.1 °F -4.0 °F 73% 30.19 in 10.0 mi WNW 12.7 mph - N/A   Clear
12:56 PM 5.0 °F -11.6 °F -2.0 °F 73% 30.19 in 10.0 mi WNW 12.7 mph - N/A   Mostly Cloudy
1:56 PM 6.1 °F -12.2 °F -0.9 °F 73% 30.18 in 10.0 mi WNW 16.1 mph - N/A   Scattered Clouds
2:46 PM 8.1 °F -9.6 °F 1.0 °F 73% 30.07 in 10.0 mi NW 16.1 mph - N/A   Mostly Cloudy
2:56 PM 8.1 °F -9.6 °F 1.0 °F 73% 30.19 in 10.0 mi NW 16.1 mph - N/A   Overcast
3:56 PM 7.0 °F -10.4 °F -0.9 °F 70% 30.20 in 10.0 mi NW 15.0 mph - N/A   Overcast
4:03 PM 7.0 °F -9.1 °F -0.0 °F 73% 30.09 in 9.0 mi NW 12.7 mph - N/A   Overcast
4:39 PM 7.0 °F -10.4 °F -0.0 °F 73% 30.10 in 10.0 mi NW 15.0 mph - N/A   Mostly Cloudy
4:56 PM 6.1 °F -10.9 °F -0.9 °F 73% 30.21 in 10.0 mi WNW 13.8 mph - N/A   Mostly Cloudy
5:25 PM 6.1 °F -8.7 °F -0.9 °F 73% 30.11 in 10.0 mi WNW 10.4 mph - N/A   Overcast
5:56 PM 6.1 °F -7.8 °F -0.0 °F 76% 30.23 in 5.0 mi WNW 9.2 mph - 0.00 in Snow Light Snow
6:27 PM 5.0 °F -8.1 °F 1.0 °F 84% 30.12 in 6.0 mi West 8.1 mph - 0.00 in   Overcast
6:51 PM 5.0 °F -9.1 °F -0.4 °F 78% 30.13 in 10.0 mi WNW 9.2 mph - 0.00 in   Overcast
6:56 PM 6.1 °F -8.7 °F -0.0 °F 76% 30.25 in 10.0 mi NW 10.4 mph - 0.00 in   Overcast
7:56 PM 3.0 °F -10.5 °F -2.0 °F 80% 30.26 in 10.0 mi West 8.1 mph - N/A   Clear
8:56 PM 1.9 °F -11.8 °F -4.0 °F 76% 30.27 in 10.0 mi West 8.1 mph - N/A   Mostly Cloudy
9:56 PM 3.9 °F -8.2 °F -2.0 °F 76% 30.25 in 10.0 mi West 6.9 mph - N/A   Overcast
10:56 PM 3.9 °F -10.4 °F -2.0 °F 76% 30.24 in 10.0 mi WSW 9.2 mph - N/A   Overcast
11:56 PM 3.0 °F -11.5 °F -4.0 °F 73% 30.23 in 10.0 mi WSW 9.2 mph - N/A   Overcast